CAPE
523 600 700 926 1152 1288 1222 1052 816 958 1316 1479 1430 1347 1278 1198 1153 1227 1349 1324 1313 1228 1198 1548 1668 1700 1657 1600 1611 1584 1344 1228 1159 1191 1022 887 914 1063 1094 1103 1096 1055 1092 1096 1125 1312 1542 1825 1875 1798 1664 1613 1543 1480 1429 1369 1427 1609 1396 1282 1256 1110 926
568 671 667 676 766 900 992 1022 933 974 1132 1342 1488 1542 1477 1448 1419 1473 1489 1430 1381 1239 1127 1466 1798 1795 1858 1845 1814 1751 1673 1507 1246 1100 1104 1061 1089 1068 1054 1160 1181 1277 1416 1480 1458 1370 1578 1695 1938 1899 1813 1821 1788 1739 1663 1560 1456 1380 1336 1268 1093 1036 1091
540 725 774 761 702 644 676 867 1028 1085 1147 1236 1329 1389 1461 1501 1532 1543 1531 1488 1415 1281 1221 1242 1738 1778 1876 1920 1905 1884 1803 1758 1539 1326 1219 1234 1276 1237 1253 1348 1461 1591 1643 1693 1567 1452 1689 1690 1727 1815 1748 1710 1616 1571 1550 1519 1463 1402 1292 1128 1197 1199 1027
515 728 861 909 871 827 865 1033 1194 1166 1182 1267 1340 1463 1537 1528 1532 1568 1554 1627 1745 1684 1357 1382 1509 1741 1803 1921 1920 1933 1934 1893 1822 1554 1360 1409 1428 1430 1548 1639 1722 1742 1751 1681 1457 1571 1645 1729 1684 1683 2071 1820 1615 1540 1563 1650 1689 1606 1403 1151 1071 970 1025
618 792 931 1016 1038 1043 1059 1139 1235 1288 1291 1301 1386 1593 1612 1643 1610 1576 1506 1464 1834 1903 1781 1674 1646 1743 1863 1891 1949 1898 1922 1929 1933 1842 1729 1632 1572 1539 1709 1691 1706 1673 1616 1510 1436 1648 1724 1711 1689 1709 1621 1730 1723 1635 1692 1706 1701 1638 1492 1215 1143 1046 994
854 955 1025 1083 1120 1150 1198 1260 1317 1398 1450 1464 1500 1537 1601 1662 1692 1678 1539 1693 1899 1993 1978 1924 1917 2029 1942 1934 1981 1974 1900 1891 1903 1900 1789 1658 1476 1610 1771 1693 1693 1637 1586 1571 1557 1471 1416 1508 1651 1719 1679 1541 1569 1627 1652 1648 1604 1523 1491 1339 1079 1081 1121
1025 1061 1112 1157 1193 1229 1271 1430 1434 1435 1494 1574 1627 1630 1655 1642 1721 1739 1714 1821 2026 2022 2024 2055 2059 2047 2031 1977 1911 1939 1910 1886 1907 1913 1817 1857 1518 1508 1614 1740 1669 1594 1527 1500 1450 1538 1537 1669 1764 1782 1742 1625 1656 1615 1599 1516 1416 1370 1424 1348 1091 1034 1068
1183 1207 1212 1249 1290 1317 1361 1543 1659 1585 1592 1532 1566 1614 1627 1680 1734 1784 1849 1964 2093 2017 2017 2062 2079 2096 2037 1962 2011 1987 1786 1812 1744 1770 1636 1676 1620 1608 1641 1666 1479 1602 1748 1694 1784 1844 1780 1773 1766 1777 1774 1753 1668 1577 1424 1337 1417 1432 1390 1243 1071 965 971
1350 1332 1338 1357 1386 1484 1513 1590 1753 1801 1802 1750 1713 1714 1710 1716 1757 1886 1933 2040 2109 2097 2069 2044 2052 2027 1956 1913 1864 2080 1998 1577 1444 1541 1529 1570 1455 1420 1526 1390 1230 1147 1228 1457 1547 1620 1612 1554 1620 1602 1561 1509 1408 1394 1368 1418 1440 1450 1430 1310 1161 1057 988
1525 1481 1478 1508 1635 1699 1698 1705 1848 1932 1989 1960 1895 1844 1866 1783 1801 1926 2007 2086 2134 2147 2099 2062 2048 1969 1658 1677 1911 2233 1670 1453 1334 1464 1502 1429 1509 1447 1375 1258 1161 1425 1426 1469 1604 1545 1627 1473 1634 1590 1527 1482 1555 1508 1425 1405 1489 1533 1479 1371 1300 1220 1169
1711 1672 1665 1737 1827 1873 1837 1799 1914 1999 2063 2104 2032 1984 1960 1967 1931 1950 2022 2070 2116 2124 2087 2065 1994 2024 2014 1929 1852 1725 1519 1274 1334 1315 1313 1293 1246 1230 1138 1080 1153 1253 1418 1539 1599 1485 1337 1640 1744 1516 1507 1512 1454 1386 1387 1388 1372 1337 1329 1270 1253 1240 1216
1853 1833 1870 1906 1921 1891 1839 1802 1879 1993 2075 2175 2185 2139 2121 2109 2083 2050 2035 2059 2085 2099 2119 2029 1965 2041 1973 1907 1807 1744 1610 1508 1435 1367 1226 1118 1092 1095 1078 1081 1114 1281 1434 1514 1378 1282 1553 1415 1568 1746 1489 1425 1374 1263 1401 1404 1337 1224 1282 1165 1215 1317 1329
1890 1904 1909 1871 1796 1789 1782 1766 1715 1790 1928 2070 2242 2229 2230 2247 2262 2270 2253 2265 2250 2158 2110 2048 1983 1933 1906 1841 1777 1708 1645 1543 1355 1113 1070 1143 1225 1272 1265 1198 1134 1107 1090 1202 1330 1276 1229 1218 1278 1335 1322 1320 1220 1127 1159 1194 1331 1349 1277 1136 1177 1320 1273
1867 1878 1867 1786 1724 1683 1573 1479 1490 1509 1562 1744 2159 2242 2254 2277 2304 2310 2302 2273 2278 2229 2108 2042 2008 1980 1837 1685 1559 1479 1458 1263 1087 1191 1236 1212 1172 1167 1183 1176 1163 1196 1278 1315 1309 1248 1210 1213 1252 1288 1282 1256 1240 1435 1424 1300 1085 1115 1030 880 988 919 991
1789 1761 1707 1690 1636 1514 1443 1410 1514 1579 1707 1774 2006 2169 2211 2243 2256 2266 2396 2454 2367 2246 2090 2055 1975 1833 1598 1433 1315 1262 1171 1328 1380 1326 1242 1210 1193 1203 1236 1246 1242 1240 1247 1238 1237 1224 1176 1108 1104 1299 1637 1598 1628 1490 1334 1333 1223 1241 1198 1072 1066 986 1090
1533 1542 1545 1534 1516 1546 1574 1479 1612 1852 1960 1950 2063 2158 2210 2373 2540 2547 2496 2436 2344 2130 1931 1915 1862 1672 1582 1574 1536 1464 1542 1513 1346 1258 1261 1252 1259 1299 1350 1367 1352 1355 1367 1347 1235 1418 1448 1436 1322 1323 1346 1304 1426 1483 1506 1462 1345 1386 1341 1501 1402 1207 1217
1394 1450 1486 1548 1684 1743 1688 1628 1855 2007 2011 2168 2244 2347 2643 2719 2625 2561 2480 2337 2182 2010 1963 1903 1777 1641 1716 1774 1709 1650 1627 1494 1396 1319 1314 1386 1452 1340 1264 1208 1212 1165 1157 1182 1346 1483 1420 1502 1312 1337 1362 1353 1324 1341 1454 1561 1577 1932 1707 1636 1649 1826 1595
1375 1498 1600 1721 1831 1821 1759 1882 2010 2042 2181 2366 2512 2671 2748 2678 2546 2420 2310 2175 2082 2025 1974 1859 1792 1725 1772 1789 1720 1687 1694 1666 1585 1472 1373 1282 1082 958 874 803 758 742 776 796 818 913 1081 1258 1379 1407 1391 1390 1395 1420 1473 1545 1609 1692 1678 1598 1700 1964 1930
1438 1533 1680 1816 1851 1766 1770 1951 2045 2140 2304 2486 2620 2653 2616 2540 2405 2299 2226 2151 2046 2021 1892 1802 1739 1725 1711 1685 1667 1660 1770 1800 1669 1459 1222 1031 941 847 747 634 528 445 380 342 427 484 703 830 896 1024 1125 1130 1127 1186 1415 1455 1429 1453 1512 1592 1582 1712 1796
1510 1624 1769 1845 1835 1749 1740 1795 2015 2177 2335 2448 2527 2522 2462 2362 2261 2253 2204 2098 2031 2001 1895 1860 1842 1754 1704 1662 1618 1667 1798 1766 1557 1262 1076 957 824 646 488 372 303 78 14 114 41 44 68 74 422 661 845 905 919 910 947 1064 1197 1416 1465 1445 1453 1544 1713
1593 1744 1890 1894 1847 1788 1753 1742 1886 2129 2211 2307 2390 2386 2326 2267 2217 2312 2164 2012 2004 2025 1945 1918 1860 1620 1357 1362 1529 1663 1665 1549 1322 1114 900 698 575 475 369 281 21 0 4 0 28 4 35 46 110 337 360 444 635 741 799 806 790 975 1163 1334 1454 1544 1517
1653 1854 1948 1914 1913 1886 1838 1819 1840 1986 2209 2324 2409 2393 2314 2309 2213 2234 2104 1964 1828 1860 1754 1650 1384 1136 1132 1322 1471 1501 1376 1202 962 753 612 470 366 285 160 0 0 3 199 63 116 62 27 81 241 263 300 264 363 404 385 413 436 470 565 720 956 1087 1174
1613 1833 1945 1920 1919 1965 1971 1944 1928 1999 2137 2301 2405 2351 2249 2174 2026 2038 1906 1756 1538 1448 1323 1158 1029 1036 1192 1302 1307 1254 1074 859 703 554 400 306 235 203 6 1 0 194 206 189 147 132 143 211 218 306 323 346 335 326 360 402 313 265 386 477 605 657 680
1520 1748 1884 1949 1928 1961 2015 2025 2040 2111 2177 2261 2312 2128 2000 1864 1726 1662 1451 1322 1205 1078 1017 1023 1025 1042 1088 1066 973 850 756 615 469 387 322 266 59 29 0 0 0 0 107 96 104 107 144 193 267 265 318 248 146 189 2 195 158 24 51 330 396 400 373
1496 1548 1690 1844 1880 1909 1956 1994 2033 2071 2136 2195 2149 1968 1758 1640 1518 1393 1273 1062 954 853 820 876 892 952 956 920 853 721 588 481 372 293 141 0 0 0 0 0 4 33 31 70 61 73 80 134 86 144 160 147 71 162 100 116 91 110 129 94 86 88 73
1492 1494 1524 1667 1823 1916 1954 1997 2016 2056 2081 2102 2112 1960 1743 1603 1492 1393 1226 1001 830 741 695 708 771 824 831 774 668 538 416 42 0 0 0 0 0 0 0 0 0 7 68 56 46 34 24 14 8 30 64 48 11 36 26 25 43 59 77 72 77 80 65
1439 1508 1558 1613 1690 1772 1889 1954 1966 1982 2017 2078 2080 1972 1782 1632 1532 1402 1130 881 754 665 630 657 673 637 582 502 223 0 0 0 0 0 0 0 0 0 0 0 14 51 39 24 8 4 4 4 6 4 6 4 1 2 0 0 0 0 0 9 12 21 17
1505 1625 1661 1700 1726 1749 1816 1889 1932 1948 1968 1987 1982 1889 1740 1617 1527 1306 1013 770 666 620 560 552 554 480 372 0 0 0 0 0 0 0 0 0 0 0 0 10 27 22 10 8 6 6 6 7 7 6 13 12 10 1 0 0 0 0 0 0 0 0 0
1622 1732 1828 1869 1870 1853 1850 1876 1917 1942 1960 1959 1903 1788 1693 1554 1429 1169 936 769 689 691 711 662 540 158 0 0 0 0 0 0 0 0 0 0 0 0 0 4 8 12 14 16 14 13 10 7 10 23 22 10 4 6 9 8 7 2 1 1 0 0 0
1757 1774 1953 2039 2027 2003 1946 1927 1895 1904 1941 1934 1957 1955 1743 1468 1362 1157 944 863 821 866 823 770 632 74 0 0 0 0 0 0 0 0 0 0 0 0 0 0 0 3 12 19 20 17 13 13 21 20 19 17 13 11 7 6 7 3 2 0 0 0 0
2080 2112 2044 2179 2240 2158 2112 2063 1996 1968 1962 1920 2085 2158 2034 1868 1625 1335 1071 972 958 958 901 862 668 0 0 0 0 0 0 0 0 0 0 0 0 0 0 0 0 0 1 10 14 9 8 9 16 15 14 13 12 9 8 7 7 1 0 1 3 18 33
1597 1795 2029 2110 2389 2355 2290 2242 2193 2138 2090 2030 2098 2296 2280 2187 2026 1667 1215 1068 1036 1012 954 943 672 0 0 0 0 0 0 0 0 0 0 0 0 0 0 0 0 0 0 4 13 16 11 13 16 16 10 5 9 9 8 8 3 1 3 0 0 0 40
1409 1487 1508 1606 2093 2516 2551 2461 2403 2355 2293 2261 2202 2318 2444 2397 2328 2096 1562 1168 1110 1055 1040 1040 687 0 0 0 0 0 0 0 0 0 0 0 0 0 0 0 0 0 0 3 5 3 7 11 17 17 9 6 10 10 9 6 1 1 7 27 0 66 28
820 1301 1424 1392 1551 2371 2682 2679 2634 2558 2537 2504 2476 2466 2513 2523 2496 2393 2036 1545 1192 1126 1163 1130 627 384 0 0 0 0 0 0 0 0 0 0 0 0 0 0 0 0 0 0 0 1 1 2 6 8 16 15 8 5 8 10 3 2 5 63 84 107 186
724 914 1254 1443 1517 1911 2660 2734 2713 2720 2673 2645 2609 2630 2620 2582 2585 2541 2308 1920 1558 1394 1377 1288 742 364 276 270 222 0 0 0 0 0 0 0 0 0 0 0 0 0 0 0 0 0 0 0 0 4 2 5 10 11 12 11 3 1 12 55 72 72 78
569 814 877 1238 1406 1591 2476 2762 2755 2750 2726 2716 2678 2685 2682 2639 2646 2636 2466 2186 1917 1735 1586 1469 840 0 0 0 130 0 0 0 0 0 0 0 0 0 0 0 0 0 0 0 0 0 0 0 0 0 3 8 10 10 3 0 1 9 12 73 26 20 146
699 884 761 824 1087 1412 1825 2565 2744 2756 2702 2685 2668 2726 2746 2754 2751 2700 2570 2378 2163 2027 1916 1733 990 0 0 0 0 0 0 0 0 0 0 0 0 0 0 0 0 0 0 0 0 0 0 0 0 0 0 0 0 0 1 3 3 8 2 0 0 0 0
560 836 840 679 790 969 1228 1523 2292 2647 2684 2619 2639 2671 2705 2750 2758 2714 2628 2475 2326 2256 2170 1938 1146 20 0 0 0 0 0 0 0 0 0 0 0 0 0 0 0 0 0 0 0 0 0 0 0 0 0 0 0 0 0 0 0 0 0 0 0 0 0
Wind_Speed
13 12 11 11 9 7 5 4 5 6 7 10 11 11 11 12 12 12 11 11 10 11 10 10 10 10 9 8 7 7 7 8 10 10 9 7 7 8 8 8 8 6 7 7 7 7 8 9 9 9 9 8 8 7 6 7 7 7 7 7 8 8 8
16 15 13 11 10 9 7 5 3 5 6 6 8 9 11 11 11 11 11 12 10 8 10 10 10 10 10 9 9 8 8 9 14 12 9 8 8 8 8 9 8 7 6 6 7 8 9 9 10 10 9 9 7 6 6 7 7 7 8 8 8 8 10
16 16 15 12 10 9 8 5 3 3 4 5 7 9 10 10 10 10 12 12 9 7 9 9 9 9 9 10 10 8 9 11 14 11 9 8 8 8 9 10 9 8 7 7 7 8 9 8 9 9 9 8 7 6 6 6 7 8 8 8 9 9 9
16 17 17 14 11 8 8 7 6 3 3 5 7 7 8 8 8 9 10 10 8 8 9 8 8 8 9 9 9 9 9 10 12 11 9 8 8 10 11 10 9 9 9 8 8 9 9 9 8 9 7 8 7 7 7 7 8 9 9 9 10 9 9
12 12 13 12 10 8 6 5 5 6 5 6 7 7 8 8 9 9 9 8 7 8 8 10 9 9 9 9 9 9 9 9 10 11 12 11 13 16 9 7 8 9 9 9 9 9 9 9 8 9 8 8 7 8 8 9 9 10 10 11 11 11 10
15 16 15 13 10 8 7 6 6 7 8 9 8 8 8 9 8 8 8 8 6 6 8 10 11 11 10 9 9 9 9 8 9 11 16 16 14 10 6 6 9 10 9 8 10 9 9 10 9 8 8 8 8 8 9 9 10 10 11 12 12 12 12
14 15 15 12 10 8 7 8 8 8 8 9 10 10 10 8 6 6 7 7 7 9 10 11 11 11 9 12 10 8 7 6 7 10 16 11 9 9 6 8 9 9 10 11 9 10 10 10 10 9 10 9 9 9 10 11 10 12 12 13 13 13 13
13 13 12 12 8 8 8 10 10 11 12 11 11 11 10 8 7 7 8 7 9 9 9 10 11 11 11 12 9 7 7 5 7 10 16 12 8 8 8 10 10 11 13 9 10 11 11 11 11 11 11 11 10 10 10 11 11 11 13 13 14 14 15
10 8 12 11 9 7 8 8 9 10 12 12 11 10 10 9 9 9 9 9 10 11 10 10 11 12 12 12 13 8 9 10 6 10 14 12 9 8 9 10 11 11 9 11 11 12 11 11 11 12 11 10 10 11 11 12 12 13 13 15 15 14 14
9 8 8 8 6 6 6 6 8 9 10 10 10 10 10 9 9 9 9 10 11 10 10 10 11 11 11 12 10 6 4 2 1 6 10 10 9 8 10 12 11 11 10 9 10 9 10 11 11 12 11 10 10 11 12 12 12 13 14 14 15 15 14
6 7 9 9 8 7 5 5 6 7 8 9 9 9 10 10 10 10 10 10 10 8 8 8 10 10 11 12 12 10 8 5 5 6 7 7 8 7 9 11 11 10 8 9 9 9 10 11 12 12 12 11 10 11 11 12 13 13 13 14 14 14 15
7 8 9 9 8 8 8 7 6 7 7 7 8 9 9 9 9 9 9 8 8 8 7 7 7 8 9 10 11 11 10 8 6 5 4 4 5 7 8 10 10 9 9 8 8 9 10 11 11 11 10 10 10 10 10 11 13 13 13 14 14 14 15
10 9 10 10 10 7 5 5 7 7 6 6 6 6 6 7 7 6 7 7 7 7 7 7 8 8 9 9 10 9 8 7 6 4 4 4 5 8 8 9 9 8 7 7 8 8 10 11 11 11 10 10 10 10 10 11 12 13 14 15 15 15 15
10 8 6 6 6 8 8 6 5 6 6 5 5 5 5 6 7 7 8 9 8 9 10 9 10 10 9 9 9 8 7 6 5 5 5 6 8 9 8 7 6 6 7 8 8 8 9 10 11 11 11 10 10 11 12 12 13 14 15 15 14 15 15
13 11 11 9 7 7 8 8 6 6 5 5 6 7 7 7 7 7 7 8 9 10 12 11 12 11 10 9 10 9 7 6 5 5 6 7 9 7 6 5 6 7 7 7 8 8 8 10 11 11 11 12 13 14 15 14 14 14 15 13 13 14 14
13 12 12 11 9 7 7 8 8 8 7 6 8 8 8 7 8 8 9 10 10 11 10 11 11 12 11 11 10 8 8 8 7 6 6 6 6 6 6 6 7 8 9 9 9 10 10 11 11 11 12 12 14 16 17 17 17 16 13 12 14 16 16
13 11 10 9 9 9 8 8 8 9 9 9 9 9 8 8 8 7 8 9 10 11 11 11 11 12 12 12 10 9 8 7 7 7 7 7 7 7 7 8 8 9 9 8 8 8 8 9 9 9 9 10 11 13 15 17 18 19 18 13 11 14 17
12 10 9 10 10 10 10 10 9 9 10 10 10 10 9 9 8 9 9 9 10 11 12 12 11 12 11 10 10 10 10 9 8 8 7 8 8 8 8 7 8 8 8 7 7 7 8 8 8 8 8 8 8 9 10 12 17 17 17 17 16 15 16
11 11 12 12 12 12 12 11 9 8 7 8 9 11 11 12 12 11 11 11 10 11 12 12 12 12 12 11 11 11 11 11 11 10 10 9 9 8 8 9 9 9 9 9 8 9 10 9 9 9 9 9 10 10 10 13 14 13 15 16 18 19 18
13 13 13 12 12 13 12 8 6 5 4 5 7 8 10 11 14 14 14 15 15 15 14 13 12 13 14 14 14 14 14 14 13 13 12 11 11 11 12 11 11 nan nan 11 nan nan nan nan 13 13 13 13 14 15 16 16 16 16 17 17 17 16 17
12 13 14 13 11 12 13 7 3 5 4 4 6 8 9 8 8 13 15 16 18 17 17 16 16 15 15 16 16 17 17 17 16 16 15 13 13 13 14 13 nan nan nan nan nan nan nan nan 16 16 17 17 17 19 19 19 21 21 21 20 19 17 18
15 15 14 12 12 12 12 8 4 5 4 6 8 8 8 10 10 13 13 14 18 18 19 19 19 18 17 18 18 18 18 19 19 18 17 16 16 16 15 nan nan nan 14 nan 16 nan nan nan 18 19 19 20 21 22 22 23 23 25 26 24 22 19 24
19 18 17 15 14 12 10 9 7 6 8 10 10 12 11 12 13 14 15 14 15 17 18 20 20 20 19 20 20 20 20 20 20 19 19 18 18 18 nan nan nan 16 16 17 17 18 18 19 20 20 21 22 23 24 25 25 26 28 30 28 25 23 25
21 20 18 18 16 15 13 11 11 10 11 13 13 13 13 12 13 14 15 15 15 17 17 18 18 19 20 19 19 20 20 20 21 21 20 19 nan nan nan nan nan nan 18 nan 20 20 19 19 20 20 21 22 22 25 nan 26 27 nan nan 29 28 25 27
26 25 23 21 21 20 17 14 13 14 15 15 15 12 12 12 12 13 14 14 15 16 17 17 18 18 19 19 19 19 19 20 20 21 21 nan nan nan nan nan nan nan nan nan nan nan nan 21 nan 20 22 23 nan 26 27 25 nan 30 29 nan nan nan nan
27 28 26 23 19 18 17 16 16 15 16 15 12 11 11 11 11 12 12 12 13 14 14 15 16 17 19 20 21 20 20 nan nan nan nan nan nan nan nan nan nan nan nan nan nan nan nan nan nan nan nan nan nan nan nan nan nan nan nan nan nan nan nan
28 30 29 25 22 19 17 16 17 18 18 15 13 12 11 12 13 12 12 14 13 13 13 14 15 17 18 19 20 nan nan nan nan nan nan nan nan nan nan nan nan nan nan nan nan nan nan nan nan nan nan nan nan nan nan nan nan nan nan nan nan nan nan
28 28 27 26 24 20 16 16 15 15 15 16 18 18 18 18 18 16 16 16 15 14 16 17 18 18 19 nan nan nan nan nan nan nan nan nan nan nan nan nan nan nan nan nan nan nan nan nan nan nan nan nan nan nan nan nan nan nan nan nan nan nan nan
29 30 29 27 23 19 20 18 16 16 17 17 19 20 21 23 23 21 20 19 17 20 20 21 22 22 nan nan nan nan nan nan nan nan nan nan nan nan nan nan nan nan nan nan nan nan nan nan nan nan nan nan nan nan nan nan nan nan nan nan nan nan nan
32 31 28 23 21 20 20 19 18 18 18 19 19 20 22 24 25 24 24 22 23 24 24 24 25 nan nan nan nan nan nan nan nan nan nan nan nan nan nan nan nan nan nan nan nan nan nan nan nan nan nan nan nan nan nan nan nan nan nan nan nan nan nan
37 32 29 24 20 20 20 21 22 22 22 21 22 22 23 24 28 28 27 25 27 28 28 29 30 nan nan nan nan nan nan nan nan nan nan nan nan nan nan nan nan nan nan nan nan nan nan nan nan nan nan nan nan nan nan nan nan nan nan nan nan nan nan
45 38 32 28 26 22 22 25 26 26 25 24 23 24 24 24 27 29 26 29 29 31 32 33 34 nan nan nan nan nan nan nan nan nan nan nan nan nan nan nan nan nan nan nan nan nan nan nan nan nan nan nan nan nan nan nan nan nan nan nan nan nan nan
46 42 37 31 27 26 26 27 27 26 26 26 25 26 26 26 25 27 31 31 31 31 33 34 35 nan nan nan nan nan nan nan nan nan nan nan nan nan nan nan nan nan nan nan nan nan nan nan nan nan nan nan nan nan nan nan nan nan nan nan nan nan nan
43 44 42 36 30 26 28 28 26 25 25 24 25 26 28 28 28 30 32 32 31 31 32 34 34 35 nan nan nan nan nan nan nan nan nan nan nan nan nan nan nan nan nan nan nan nan nan nan nan nan nan nan nan nan nan nan nan nan nan nan nan 30 33
44 43 43 43 37 31 27 29 26 24 23 23 27 29 29 28 28 32 35 34 31 31 33 33 33 33 34 30 26 nan nan nan nan nan nan nan nan nan nan nan nan nan nan nan nan nan nan nan nan nan nan nan nan nan nan nan nan nan nan nan nan nan nan
44 44 44 45 41 37 34 30 26 22 22 25 29 30 31 30 30 33 35 35 32 32 31 31 31 nan nan nan 22 nan nan nan nan nan nan nan nan nan nan nan nan nan nan nan nan nan nan nan nan nan nan nan nan nan nan nan nan nan nan nan nan nan 34
42 44 46 47 46 39 33 30 29 25 23 27 31 31 31 32 33 33 35 36 34 32 30 30 29 nan nan nan nan nan nan nan nan nan nan nan nan nan nan nan nan nan nan nan nan nan nan nan nan nan nan nan nan nan nan nan nan nan nan nan nan nan nan
44 45 47 46 39 34 33 32 31 30 28 29 30 31 33 34 35 36 37 38 36 33 31 30 29 nan nan nan nan nan nan nan nan nan nan nan nan nan nan nan nan nan nan nan nan nan nan nan nan nan nan nan nan nan nan nan nan nan nan nan nan nan nan
Wind_Direction
341 346 350 353 357 358 347 306 271 251 240 238 239 244 244 242 246 249 254 260 266 269 274 277 282 278 287 287 288 286 285 281 278 266 265 269 272 277 275 271 276 281 274 274 274 275 268 269 266 260 256 256 255 260 261 253 240 235 245 255 260 266 268
344 349 344 342 350 359 0 345 305 263 247 240 237 243 241 245 247 252 258 264 272 280 278 280 280 280 287 288 282 284 287 285 273 272 267 257 249 256 270 272 277 273 268 270 271 268 266 266 267 264 261 257 255 258 261 262 254 239 234 244 255 257 262
338 344 340 334 338 345 349 332 324 302 285 258 245 242 249 255 260 268 266 266 272 273 270 280 290 294 288 283 282 290 290 284 291 304 304 274 267 265 264 268 265 266 268 264 264 263 262 260 265 261 260 259 257 259 264 265 262 252 240 238 243 247 257
338 341 343 339 330 321 328 329 332 317 286 287 282 278 274 275 269 266 268 277 287 284 290 296 302 302 293 290 290 290 293 295 295 295 285 264 258 255 255 260 259 255 254 263 267 267 260 261 262 263 262 258 259 256 258 263 261 260 250 243 238 242 246
333 328 324 328 321 303 300 308 306 300 294 283 285 286 288 283 275 264 263 269 287 304 314 314 306 303 288 287 278 278 296 300 294 286 279 269 251 242 244 252 260 259 254 253 259 258 259 257 255 258 261 265 261 261 260 259 258 262 257 254 244 243 241
341 339 337 333 328 318 302 288 287 299 300 296 289 274 263 268 265 275 275 278 280 281 281 282 291 294 291 284 276 272 276 281 279 278 267 255 258 256 247 257 260 258 254 254 251 252 252 248 244 243 250 258 262 261 259 258 257 261 262 259 255 249 246
340 339 336 337 335 319 292 277 268 271 284 298 288 267 261 277 296 292 280 293 300 306 295 294 292 286 281 267 262 266 276 276 278 281 274 289 275 260 260 253 256 254 249 245 245 245 244 243 238 235 238 241 247 253 255 258 257 260 261 262 261 257 255
335 336 341 338 329 301 279 269 266 265 269 275 280 273 280 286 288 295 309 309 306 300 298 298 288 287 280 279 278 269 247 252 262 271 265 274 272 257 247 244 247 250 248 244 239 244 239 235 231 230 231 234 236 238 243 250 257 261 263 263 260 258 256
331 335 338 336 329 306 284 281 282 288 295 302 305 298 295 297 305 308 311 305 303 307 308 303 295 288 284 279 267 263 237 221 236 261 274 287 287 262 239 239 245 249 250 247 244 246 246 242 239 235 235 236 236 238 236 240 242 247 256 258 260 257 254
321 313 323 330 332 307 290 286 281 283 294 301 308 315 317 315 310 308 310 311 304 311 306 298 296 301 304 287 289 311 299 292 336 290 278 282 276 259 241 238 246 253 256 252 251 254 259 260 255 250 248 242 240 241 242 243 242 241 245 251 257 260 260
315 320 328 341 353 341 317 314 318 315 317 322 321 317 318 320 319 318 313 304 305 301 293 292 296 308 317 314 323 334 336 357 2 329 301 293 281 269 254 249 249 252 256 261 262 264 265 264 262 259 254 250 248 245 247 249 249 247 244 244 250 258 262
327 337 346 345 348 351 350 350 341 333 334 327 322 319 317 315 311 309 304 305 298 300 310 317 319 327 331 335 345 348 350 356 351 347 327 313 289 282 268 260 258 259 262 270 272 272 272 272 270 266 263 258 252 251 251 252 253 252 250 249 249 253 256
340 347 350 349 348 348 337 340 348 350 354 354 341 340 332 326 322 319 321 324 328 328 333 341 344 348 345 344 347 339 341 337 345 336 324 309 287 279 278 274 269 271 272 275 278 282 278 276 275 270 266 264 262 261 260 257 256 255 251 246 249 251 253
317 313 315 307 316 337 349 349 341 344 351 350 360 356 351 354 350 353 354 352 352 351 354 356 357 357 353 350 352 352 353 341 335 324 307 288 281 280 285 285 283 280 277 276 282 286 282 282 282 279 277 275 273 271 270 268 266 268 268 262 252 249 253
328 332 330 331 331 325 326 337 345 343 342 343 345 355 357 357 360 359 2 2 2 2 3 358 357 357 358 1 8 7 358 346 331 306 291 282 272 277 285 284 276 278 281 285 286 282 287 286 286 284 287 285 282 279 275 273 271 272 273 268 273 274 266
334 338 341 342 337 328 320 320 326 331 327 332 343 348 352 356 360 1 358 2 2 2 3 354 356 354 357 5 12 7 4 0 355 333 303 301 300 293 285 283 282 277 280 285 283 279 282 288 291 292 286 283 281 279 275 274 272 268 267 278 281 281 276
329 334 336 337 333 327 315 309 312 313 320 330 339 343 345 346 347 347 348 349 349 350 349 347 346 351 353 359 356 354 353 356 355 346 343 335 314 306 302 295 281 276 279 277 276 280 283 291 292 291 290 286 281 278 277 276 277 271 271 279 287 281 282
328 333 335 341 340 332 324 313 305 311 318 324 329 330 331 332 329 330 337 332 333 331 328 329 331 337 343 340 330 330 332 332 329 327 324 323 322 319 310 303 296 289 285 279 269 267 272 279 286 285 279 286 287 288 283 284 266 265 265 263 269 278 285
334 333 339 338 339 343 336 321 304 302 301 307 318 322 326 322 320 329 322 317 309 303 309 314 317 315 315 314 314 314 313 313 310 307 308 310 310 307 302 298 291 289 286 284 280 283 281 275 281 282 282 283 286 284 287 284 265 265 265 268 270 269 277
339 335 331 336 340 343 340 311 269 264 287 302 308 312 309 319 326 322 314 308 304 303 300 299 299 299 302 305 308 307 305 303 299 298 295 290 286 285 285 285 288 nan nan 282 nan nan nan nan 276 276 277 278 281 286 284 283 272 272 271 270 273 274 283
329 329 328 331 335 342 348 350 263 245 243 257 283 280 286 297 296 297 297 302 301 300 299 296 292 290 295 298 299 299 300 299 299 297 294 289 288 286 286 288 nan nan nan nan nan nan nan nan 276 276 277 277 282 286 286 282 278 275 271 270 271 269 278
316 312 319 326 336 342 344 350 332 309 305 265 271 277 293 301 294 297 299 300 301 300 299 298 296 295 295 295 299 301 303 304 302 301 301 299 296 294 292 nan nan nan 285 nan 281 nan nan nan 283 282 282 282 283 286 288 284 275 274 270 266 263 268 281
304 310 310 313 321 326 323 319 315 302 282 289 293 296 301 300 305 302 299 299 297 296 296 296 298 301 302 301 303 304 305 305 303 301 300 297 297 297 nan nan nan 288 288 281 281 281 282 285 285 285 286 286 285 286 286 283 278 274 271 268 264 272 279
290 294 299 302 304 310 310 300 288 292 309 314 313 309 298 305 309 309 308 305 300 296 294 294 296 296 297 299 301 301 301 300 299 298 295 295 nan nan nan nan nan nan 294 nan 293 289 289 288 285 282 281 282 283 287 nan 283 282 nan nan 271 267 271 278
289 294 300 307 314 318 319 315 307 303 308 317 318 310 305 310 313 312 314 311 309 304 300 295 292 292 293 293 291 291 291 291 291 293 294 nan nan nan nan nan nan nan nan nan nan nan nan 290 nan 284 280 279 nan 277 278 279 nan 278 276 nan nan nan nan
283 288 294 301 306 311 309 300 292 297 313 326 331 315 315 317 318 316 309 309 306 309 307 303 299 292 284 284 284 283 282 nan nan nan nan nan nan nan nan nan nan nan nan nan nan nan nan nan nan nan nan nan nan nan nan nan nan nan nan nan nan nan nan
281 286 289 295 301 296 297 305 311 317 325 327 319 316 316 315 314 312 302 295 298 308 308 300 291 287 283 279 279 nan nan nan nan nan nan nan nan nan nan nan nan nan nan nan nan nan nan nan nan nan nan nan nan nan nan nan nan nan nan nan nan nan nan
268 273 277 282 289 294 294 296 300 304 305 304 307 308 308 308 309 305 301 295 300 292 280 288 294 292 290 nan nan nan nan nan nan nan nan nan nan nan nan nan nan nan nan nan nan nan nan nan nan nan nan nan nan nan nan nan nan nan nan nan nan nan nan
263 272 276 276 282 291 295 295 301 309 310 301 303 303 305 307 305 302 298 301 296 283 286 288 294 299 nan nan nan nan nan nan nan nan nan nan nan nan nan nan nan nan nan nan nan nan nan nan nan nan nan nan nan nan nan nan nan nan nan nan nan nan nan
243 250 255 264 278 286 292 294 292 293 293 294 298 300 301 303 300 297 297 301 290 289 287 291 296 nan nan nan nan nan nan nan nan nan nan nan nan nan nan nan nan nan nan nan nan nan nan nan nan nan nan nan nan nan nan nan nan nan nan nan nan nan nan
237 234 239 247 258 269 276 284 289 288 289 289 293 292 295 297 298 298 300 298 294 295 298 300 302 nan nan nan nan nan nan nan nan nan nan nan nan nan nan nan nan nan nan nan nan nan nan nan nan nan nan nan nan nan nan nan nan nan nan nan nan nan nan
234 231 229 232 238 251 265 270 275 284 290 287 286 285 287 290 294 300 299 295 297 300 305 306 307 nan nan nan nan nan nan nan nan nan nan nan nan nan nan nan nan nan nan nan nan nan nan nan nan nan nan nan nan nan nan nan nan nan nan nan nan nan nan
232 231 227 223 229 243 255 267 276 286 291 291 287 285 286 291 293 294 292 297 298 301 306 305 306 nan nan nan nan nan nan nan nan nan nan nan nan nan nan nan nan nan nan nan nan nan nan nan nan nan nan nan nan nan nan nan nan nan nan nan nan nan nan
225 229 231 228 224 235 251 261 271 280 286 288 287 288 290 292 296 294 293 291 295 301 303 304 305 306 nan nan nan nan nan nan nan nan nan nan nan nan nan nan nan nan nan nan nan nan nan nan nan nan nan nan nan nan nan nan nan nan nan nan nan 287 288
220 229 235 233 228 229 243 258 266 271 279 283 284 286 286 288 288 288 292 292 296 302 304 304 306 305 307 304 295 nan nan nan nan nan nan nan nan nan nan nan nan nan nan nan nan nan nan nan nan nan nan nan nan nan nan nan nan nan nan nan nan nan nan
212 217 227 236 233 228 230 238 247 260 271 271 273 280 283 285 286 288 287 291 295 300 302 304 303 nan nan nan 296 nan nan nan nan nan nan nan nan nan nan nan nan nan nan nan nan nan nan nan nan nan nan nan nan nan nan nan nan nan nan nan nan nan 293
224 224 225 225 223 225 232 234 234 239 252 260 267 274 278 278 280 284 286 290 292 297 298 300 298 nan nan nan nan nan nan nan nan nan nan nan nan nan nan nan nan nan nan nan nan nan nan nan nan nan nan nan nan nan nan nan nan nan nan nan nan nan nan
241 238 230 223 222 227 234 236 239 245 250 254 262 270 272 275 277 282 282 284 287 292 292 293 292 nan nan nan nan nan nan nan nan nan nan nan nan nan nan nan nan nan nan nan nan nan nan nan nan nan nan nan nan nan nan nan nan nan nan nan nan nan nan